Time,TemperatureF,DewpointF,PressureIn,WindDirection,WindDirectionDegrees,WindSpeedMPH,WindSpeedGustMPH,Humidity,HourlyPrecipIn,Conditions,Clouds,dailyrainin,SoftwareType,DateUTC
2013-07-19 00:05:00,73.9,69.8,29.54,ENE,68,0.0,0.0,87,0.00,,,0.00,WUHU21623XXSP,2013-07-19 04:05:00,
2013-07-19 01:05:00,73.6,69.5,29.54,ENE,68,0.0,0.0,87,0.00,,,0.00,WUHU21623XXSP,2013-07-19 05:05:00,
2013-07-19 02:05:00,73.9,70.1,29.53,ENE,68,0.0,0.0,88,0.00,,,0.00,WUHU21623XXSP,2013-07-19 06:05:00,
2013-07-19 03:05:00,73.9,70.1,29.53,ENE,68,0.0,0.0,88,0.00,,,0.00,WUHU21623XXSP,2013-07-19 07:05:00,
2013-07-19 04:05:00,73.9,70.1,29.52,ENE,68,0.0,0.0,88,0.00,,,0.00,WUHU21623XXSP,2013-07-19 08:05:00,
2013-07-19 05:05:00,73.8,70.0,29.52,ENE,68,0.0,0.0,88,0.00,,,0.00,WUHU21623XXSP,2013-07-19 09:05:00,
2013-07-19 06:05:00,73.9,70.4,29.52,ENE,68,0.0,0.0,89,0.00,,,0.00,WUHU21623XXSP,2013-07-19 10:05:00,
2013-07-19 07:05:00,74.1,70.6,29.54,NE,45,0.0,0.0,89,0.00,,,0.00,WUHU21623XXSP,2013-07-19 11:05:00,
2013-07-19 08:05:00,76.6,73.4,29.54,NE,45,0.0,0.0,90,0.00,,,0.00,WUHU21623XXSP,2013-07-19 12:05:00,
2013-07-19 09:05:00,81.5,78.3,29.54,SE,135,0.0,0.0,90,0.00,,,0.00,WUHU21623XXSP,2013-07-19 13:05:00,
2013-07-19 10:05:00,82.9,78.0,29.56,SE,135,0.0,0.0,85,0.00,,,0.00,WUHU21623XXSP,2013-07-19 14:05:00,
2013-07-19 11:05:00,85.8,77.2,29.57,SE,135,0.0,0.0,75,0.00,,,0.00,WUHU21623XXSP,2013-07-19 15:05:00,
2013-07-19 12:05:00,87.1,77.6,29.56,SSE,158,0.0,0.0,73,0.00,,,0.00,WUHU21623XXSP,2013-07-19 16:05:00,
2013-07-19 13:05:00,91.6,78.9,29.55,ENE,68,0.0,0.0,66,0.00,,,0.00,WUHU21623XXSP,2013-07-19 17:05:00,
2013-07-19 13:56:00,92.8,78.4,29.53,South,180,0.0,0.0,63,0.00,,,0.00,WUHU21623XXSP,2013-07-19 17:56:00,
2013-07-19 14:01:00,93.0,78.6,29.53,SE,135,0.0,0.0,63,0.00,,,0.00,WUHU21623XXSP,2013-07-19 18:01:00,
2013-07-19 14:06:00,93.6,78.6,29.53,SE,135,0.0,0.0,62,0.00,,,0.00,WUHU21623XXSP,2013-07-19 18:06:00,
2013-07-19 14:11:00,94.1,79.1,29.53,SE,135,0.0,0.0,62,0.00,,,0.00,WUHU21623XXSP,2013-07-19 18:11:00,
2013-07-19 14:16:00,94.3,78.8,29.53,ESE,112,0.0,0.0,61,0.00,,,0.00,WUHU21623XXSP,2013-07-19 18:16:00,
2013-07-19 14:21:00,93.0,77.2,29.53,ESE,112,0.0,0.0,60,0.00,,,0.00,WUHU21623XXSP,2013-07-19 18:21:00,
2013-07-19 14:26:00,93.4,78.0,29.53,SSE,157,0.0,0.0,61,0.00,,,0.00,WUHU21623XXSP,2013-07-19 18:26:00,
2013-07-19 14:31:00,93.4,78.0,29.53,SE,135,0.0,0.0,61,0.00,,,0.00,WUHU21623XXSP,2013-07-19 18:31:00,
2013-07-19 14:36:00,93.6,78.2,29.53,ESE,112,0.0,0.0,61,0.00,,,0.00,WUHU21623XXSP,2013-07-19 18:36:00,
2013-07-19 14:41:00,93.9,77.5,29.53,SSE,157,0.0,0.0,59,0.00,,,0.00,WUHU21623XXSP,2013-07-19 18:41:00,
2013-07-19 14:46:00,93.7,76.7,29.52,ESE,112,0.0,0.0,58,0.00,,,0.00,WUHU21623XXSP,2013-07-19 18:46:00,
2013-07-19 14:51:00,93.4,77.0,29.52,South,180,0.0,0.0,59,0.00,,,0.00,WUHU21623XXSP,2013-07-19 18:51:00,
2013-07-19 14:56:00,93.0,76.6,29.52,SSE,157,0.0,0.0,59,0.00,,,0.00,WUHU21623XXSP,2013-07-19 18:56:00,
2013-07-19 15:01:00,93.0,76.6,29.52,SSE,157,0.0,0.0,59,0.00,,,0.00,WUHU21623XXSP,2013-07-19 19:01:00,
2013-07-19 15:06:00,92.8,77.0,29.53,SE,135,0.0,0.0,60,0.00,,,0.00,WUHU21623XXSP,2013-07-19 19:06:00,
2013-07-19 15:11:00,92.5,76.6,29.52,SE,135,0.0,0.0,60,0.00,,,0.00,WUHU21623XXSP,2013-07-19 19:11:00,
2013-07-19 15:16:00,92.3,76.9,29.53,SSE,157,0.0,0.0,61,0.00,,,0.00,WUHU21623XXSP,2013-07-19 19:16:00,
2013-07-19 15:21:00,91.2,76.3,29.52,SE,135,0.0,0.0,62,0.00,,,0.00,WUHU21623XXSP,2013-07-19 19:21:00,
2013-07-19 15:26:00,90.5,76.2,29.52,ESE,112,0.0,0.0,63,0.00,,,0.00,WUHU21623XXSP,2013-07-19 19:26:00,
2013-07-19 15:31:00,90.1,76.3,29.52,ESE,112,0.0,0.0,64,0.00,,,0.00,WUHU21623XXSP,2013-07-19 19:31:00,
2013-07-19 15:36:00,89.4,76.1,29.52,SE,135,0.0,0.0,65,0.00,,,0.00,WUHU21623XXSP,2013-07-19 19:36:00,
2013-07-19 15:41:00,89.4,76.1,29.52,South,180,0.0,0.0,65,0.00,,,0.00,WUHU21623XXSP,2013-07-19 19:41:00,
2013-07-19 15:46:00,89.2,76.4,29.52,South,180,0.0,0.0,66,0.00,,,0.00,WUHU21623XXSP,2013-07-19 19:46:00,
2013-07-19 15:51:00,89.2,76.4,29.52,South,180,0.0,0.0,66,0.00,,,0.00,WUHU21623XXSP,2013-07-19 19:51:00,
2013-07-19 15:56:00,88.9,76.0,29.51,SE,135,0.0,0.0,66,0.00,,,0.00,WUHU21623XXSP,2013-07-19 19:56:00,
2013-07-19 16:01:00,88.3,76.0,29.51,SE,135,0.0,0.0,67,0.00,,,0.00,WUHU21623XXSP,2013-07-19 20:01:00,
2013-07-19 16:06:00,87.6,75.3,29.51,ESE,112,0.0,0.0,67,0.00,,,0.00,WUHU21623XXSP,2013-07-19 20:06:00,
2013-07-19 16:11:00,87.1,75.3,29.51,SE,135,0.0,0.0,68,0.00,,,0.00,WUHU21623XXSP,2013-07-19 20:11:00,
2013-07-19 16:16:00,86.7,74.9,29.51,ESE,112,0.0,0.0,68,0.00,,,0.00,WUHU21623XXSP,2013-07-19 20:16:00,
2013-07-19 16:21:00,86.4,75.1,29.51,ESE,112,0.0,0.0,69,0.00,,,0.00,WUHU21623XXSP,2013-07-19 20:21:00,
2013-07-19 16:26:00,86.2,74.9,29.51,SE,135,0.0,0.0,69,0.00,,,0.00,WUHU21623XXSP,2013-07-19 20:26:00,
2013-07-19 16:31:00,86.0,75.2,29.51,ESE,112,0.0,0.0,70,0.00,,,0.00,WUHU21623XXSP,2013-07-19 20:31:00,
2013-07-19 16:36:00,85.8,75.0,29.51,SE,135,0.0,0.0,70,0.00,,,0.00,WUHU21623XXSP,2013-07-19 20:36:00,
2013-07-19 16:41:00,85.6,75.2,29.51,South,180,0.0,0.0,71,0.00,,,0.00,WUHU21623XXSP,2013-07-19 20:41:00,
2013-07-19 16:46:00,85.6,75.2,29.51,SSE,157,0.0,0.0,71,0.00,,,0.00,WUHU21623XXSP,2013-07-19 20:46:00,
2013-07-19 16:51:00,85.5,75.1,29.51,SSW,202,0.0,0.0,71,0.00,,,0.00,WUHU21623XXSP,2013-07-19 20:51:00,
2013-07-19 16:56:00,85.5,75.1,29.51,ESE,112,0.0,0.0,71,0.00,,,0.00,WUHU21623XXSP,2013-07-19 20:56:00,
2013-07-19 17:01:00,85.3,75.3,29.51,SE,135,0.0,0.0,72,0.00,,,0.00,WUHU21623XXSP,2013-07-19 21:01:00,
2013-07-19 17:06:00,85.3,75.3,29.51,ESE,112,0.0,0.0,72,0.00,,,0.00,WUHU21623XXSP,2013-07-19 21:06:00,
2013-07-19 17:11:00,85.1,75.1,29.51,SSW,202,0.0,0.0,72,0.00,,,0.00,WUHU21623XXSP,2013-07-19 21:11:00,
2013-07-19 17:16:00,85.3,75.3,29.51,SE,135,0.0,0.0,72,0.00,,,0.00,WUHU21623XXSP,2013-07-19 21:16:00,
2013-07-19 17:21:00,85.1,75.1,29.51,ESE,112,0.0,0.0,72,0.00,,,0.00,WUHU21623XXSP,2013-07-19 21:21:00,
2013-07-19 17:26:00,85.3,75.3,29.51,SSE,157,0.0,0.0,72,0.00,,,0.00,WUHU21623XXSP,2013-07-19 21:26:00,
2013-07-19 17:31:00,85.5,75.5,29.51,SE,135,0.0,0.0,72,0.00,,,0.00,WUHU21623XXSP,2013-07-19 21:31:00,
2013-07-19 17:37:00,85.6,75.6,29.50,SSE,157,0.0,0.0,72,0.00,,,0.00,WUHU21623XXSP,2013-07-19 21:37:00,
2013-07-19 17:42:00,85.8,75.8,29.50,ESE,112,0.0,0.0,72,0.00,,,0.00,WUHU21623XXSP,2013-07-19 21:42:00,
2013-07-19 17:47:00,85.6,75.6,29.50,SE,135,0.0,0.0,72,0.00,,,0.00,WUHU21623XXSP,2013-07-19 21:47:00,
2013-07-19 17:52:00,85.6,75.6,29.50,South,180,0.0,0.0,72,0.00,,,0.00,WUHU21623XXSP,2013-07-19 21:52:00,
2013-07-19 17:57:00,85.5,75.5,29.50,SSE,157,0.0,0.0,72,0.00,,,0.00,WUHU21623XXSP,2013-07-19 21:57:00,
2013-07-19 18:02:00,85.6,76.0,29.50,South,180,0.0,0.0,73,0.00,,,0.00,WUHU21623XXSP,2013-07-19 22:02:00,
2013-07-19 18:07:00,85.3,75.7,29.50,SE,135,0.0,0.0,73,0.00,,,0.00,WUHU21623XXSP,2013-07-19 22:07:00,
2013-07-19 18:12:00,85.6,76.0,29.50,SSE,157,0.0,0.0,73,0.00,,,0.00,WUHU21623XXSP,2013-07-19 22:12:00,
2013-07-19 18:17:00,85.6,76.0,29.50,ESE,112,0.0,0.0,73,0.00,,,0.00,WUHU21623XXSP,2013-07-19 22:17:00,
2013-07-19 18:22:00,85.3,75.7,29.50,East,90,0.0,0.0,73,0.00,,,0.00,WUHU21623XXSP,2013-07-19 22:22:00,
2013-07-19 18:27:00,85.3,75.7,29.49,ESE,112,0.0,0.0,73,0.00,,,0.00,WUHU21623XXSP,2013-07-19 22:27:00,
2013-07-19 18:32:00,85.3,75.7,29.49,SE,135,0.0,0.0,73,0.00,,,0.00,WUHU21623XXSP,2013-07-19 22:32:00,
2013-07-19 18:37:00,85.5,75.8,29.49,ESE,112,0.0,0.0,73,0.00,,,0.00,WUHU21623XXSP,2013-07-19 22:37:00,
2013-07-19 18:42:00,85.6,76.0,29.49,ESE,112,0.0,0.0,73,0.00,,,0.00,WUHU21623XXSP,2013-07-19 22:42:00,
2013-07-19 18:47:00,85.3,75.7,29.49,SSE,157,0.0,0.0,73,0.00,,,0.00,WUHU21623XXSP,2013-07-19 22:47:00,
2013-07-19 18:52:00,85.3,75.7,29.50,SSE,157,0.0,0.0,73,0.00,,,0.00,WUHU21623XXSP,2013-07-19 22:52:00,
2013-07-19 18:57:00,85.3,75.7,29.50,SSE,157,0.0,0.0,73,0.00,,,0.00,WUHU21623XXSP,2013-07-19 22:57:00,
2013-07-19 19:02:00,85.3,75.7,29.50,NE,45,0.0,0.0,73,0.00,,,0.00,WUHU21623XXSP,2013-07-19 23:02:00,
2013-07-19 19:07:00,84.9,75.3,29.50,SE,135,0.0,0.0,73,0.00,,,0.00,WUHU21623XXSP,2013-07-19 23:07:00,
2013-07-19 19:12:00,84.9,75.3,29.50,SE,135,0.0,0.0,73,0.00,,,0.00,WUHU21623XXSP,2013-07-19 23:12:00,
2013-07-19 19:17:00,84.7,75.1,29.50,SSE,157,0.0,0.0,73,0.00,,,0.00,WUHU21623XXSP,2013-07-19 23:17:00,
2013-07-19 19:22:00,84.6,74.9,29.50,SSE,157,0.0,0.0,73,0.00,,,0.00,WUHU21623XXSP,2013-07-19 23:22:00,
2013-07-19 19:27:00,84.4,75.2,29.50,ESE,112,0.0,0.0,74,0.00,,,0.00,WUHU21623XXSP,2013-07-19 23:27:00,
2013-07-19 19:32:00,84.0,74.8,29.50,SSE,157,0.0,0.0,74,0.00,,,0.00,WUHU21623XXSP,2013-07-19 23:32:00,
2013-07-19 19:37:00,84.0,74.8,29.51,SE,135,0.0,0.0,74,0.00,,,0.00,WUHU21623XXSP,2013-07-19 23:37:00,
2013-07-19 19:42:00,83.7,74.5,29.51,ESE,112,0.0,0.0,74,0.00,,,0.00,WUHU21623XXSP,2013-07-19 23:42:00,
2013-07-19 19:47:00,83.5,74.7,29.51,East,90,0.0,0.0,75,0.00,,,0.00,WUHU21623XXSP,2013-07-19 23:47:00,
2013-07-19 19:52:00,83.3,74.5,29.51,SE,135,0.0,0.0,75,0.00,,,0.00,WUHU21623XXSP,2013-07-19 23:52:00,
2013-07-19 19:57:00,83.1,74.8,29.52,SSE,157,0.0,0.0,76,0.00,,,0.00,WUHU21623XXSP,2013-07-19 23:57:00,
2013-07-19 20:02:00,82.9,74.2,29.52,ESE,112,0.0,0.0,75,0.00,,,0.00,WUHU21623XXSP,2013-07-20 00:02:00,
2013-07-19 20:07:00,82.9,74.2,29.52,ESE,112,0.0,0.0,75,0.00,,,0.00,WUHU21623XXSP,2013-07-20 00:07:00,
2013-07-19 20:12:00,82.9,74.2,29.51,East,90,0.0,0.0,75,0.00,,,0.00,WUHU21623XXSP,2013-07-20 00:12:00,
2013-07-19 20:17:00,82.8,74.4,29.51,SE,135,0.0,0.0,76,0.00,,,0.00,WUHU21623XXSP,2013-07-20 00:17:00,
2013-07-19 20:22:00,82.6,74.2,29.51,SE,135,0.0,0.0,76,0.00,,,0.00,WUHU21623XXSP,2013-07-20 00:22:00,
2013-07-19 20:27:00,82.4,74.1,29.51,SE,135,0.0,0.0,76,0.00,,,0.00,WUHU21623XXSP,2013-07-20 00:27:00,
2013-07-19 20:32:00,82.2,73.9,29.52,SSE,157,0.0,0.0,76,0.00,,,0.00,WUHU21623XXSP,2013-07-20 00:32:00,
2013-07-19 20:37:00,82.2,74.3,29.52,SE,135,0.0,0.0,77,0.00,,,0.00,WUHU21623XXSP,2013-07-20 00:37:00,
2013-07-19 20:42:00,82.2,74.3,29.52,SSE,157,0.0,0.0,77,0.00,,,0.00,WUHU21623XXSP,2013-07-20 00:42:00,
2013-07-19 20:47:00,82.0,74.1,29.52,SE,135,0.0,0.0,77,0.00,,,0.00,WUHU21623XXSP,2013-07-20 00:47:00,
2013-07-19 20:52:00,82.0,74.1,29.52,SE,135,0.0,0.0,77,0.00,,,0.00,WUHU21623XXSP,2013-07-20 00:52:00,
2013-07-19 20:57:00,82.0,74.6,29.52,ESE,112,0.0,0.0,78,0.00,,,0.00,WUHU21623XXSP,2013-07-20 00:57:00,
2013-07-19 21:02:00,81.9,74.4,29.53,SE,135,0.0,0.0,78,0.00,,,0.00,WUHU21623XXSP,2013-07-20 01:02:00,
2013-07-19 21:07:00,81.9,74.4,29.53,SE,135,0.0,0.0,78,0.00,,,0.00,WUHU21623XXSP,2013-07-20 01:07:00,
2013-07-19 21:12:00,81.7,74.2,29.53,SE,135,0.0,0.0,78,0.00,,,0.00,WUHU21623XXSP,2013-07-20 01:12:00,
2013-07-19 21:17:00,81.7,74.2,29.53,ESE,112,0.0,0.0,78,0.00,,,0.00,WUHU21623XXSP,2013-07-20 01:17:00,
2013-07-19 21:22:00,81.7,74.2,29.53,SE,135,0.0,0.0,78,0.00,,,0.00,WUHU21623XXSP,2013-07-20 01:22:00,
2013-07-19 21:27:00,81.7,74.2,29.54,SE,135,0.0,0.0,78,0.00,,,0.00,WUHU21623XXSP,2013-07-20 01:27:00,
2013-07-19 21:32:00,81.9,74.8,29.54,SE,135,0.0,0.0,79,0.00,,,0.00,WUHU21623XXSP,2013-07-20 01:32:00,
2013-07-19 21:37:00,81.9,74.8,29.54,SSE,157,0.0,0.0,79,0.00,,,0.00,WUHU21623XXSP,2013-07-20 01:37:00,
2013-07-19 21:42:00,81.7,74.6,29.54,SE,135,0.0,0.0,79,0.00,,,0.00,WUHU21623XXSP,2013-07-20 01:42:00,
2013-07-19 21:47:00,81.7,74.6,29.54,SSE,157,0.0,0.0,79,0.00,,,0.00,WUHU21623XXSP,2013-07-20 01:47:00,
2013-07-19 21:52:00,81.7,74.6,29.55,ESE,112,0.0,0.0,79,0.00,,,0.00,WUHU21623XXSP,2013-07-20 01:52:00,
2013-07-19 21:57:00,81.7,74.6,29.55,SE,135,0.0,0.0,79,0.00,,,0.00,WUHU21623XXSP,2013-07-20 01:57:00,
2013-07-19 22:02:00,81.7,74.6,29.55,SE,135,0.0,0.0,79,0.00,,,0.00,WUHU21623XXSP,2013-07-20 02:02:00,
2013-07-19 22:07:00,81.7,75.0,29.55,SE,135,0.0,0.0,80,0.00,,,0.00,WUHU21623XXSP,2013-07-20 02:07:00,
2013-07-19 22:12:00,81.7,75.0,29.55,SSE,157,0.0,0.0,80,0.00,,,0.00,WUHU21623XXSP,2013-07-20 02:12:00,
2013-07-19 22:17:00,81.5,74.8,29.56,SE,135,0.0,0.0,80,0.00,,,0.00,WUHU21623XXSP,2013-07-20 02:17:00,
2013-07-19 22:22:00,81.5,74.8,29.56,SE,135,0.0,0.0,80,0.00,,,0.00,WUHU21623XXSP,2013-07-20 02:22:00,
2013-07-19 22:27:00,81.5,74.8,29.56,SE,135,0.0,0.0,80,0.00,,,0.00,WUHU21623XXSP,2013-07-20 02:27:00,
2013-07-19 22:32:00,81.5,74.8,29.56,ESE,112,0.0,0.0,80,0.00,,,0.00,WUHU21623XXSP,2013-07-20 02:32:00,
2013-07-19 22:37:00,81.5,74.8,29.56,South,180,0.0,0.0,80,0.00,,,0.00,WUHU21623XXSP,2013-07-20 02:37:00,
2013-07-19 22:42:00,81.3,74.7,29.56,SSE,157,0.0,0.0,80,0.00,,,0.00,WUHU21623XXSP,2013-07-20 02:42:00,
2013-07-19 22:47:00,81.3,74.7,29.56,SE,135,0.0,0.0,80,0.00,,,0.00,WUHU21623XXSP,2013-07-20 02:47:00,
2013-07-19 22:52:00,81.3,75.0,29.57,SE,135,0.0,0.0,81,0.00,,,0.00,WUHU21623XXSP,2013-07-20 02:52:00,
2013-07-19 22:57:00,81.3,75.0,29.57,East,90,0.0,0.0,81,0.00,,,0.00,WUHU21623XXSP,2013-07-20 02:57:00,
2013-07-19 23:02:00,81.3,75.0,29.56,SE,135,0.0,0.0,81,0.00,,,0.00,WUHU21623XXSP,2013-07-20 03:02:00,
2013-07-19 23:07:00,81.3,74.7,29.57,SE,135,0.0,0.0,80,0.00,,,0.00,WUHU21623XXSP,2013-07-20 03:07:00,
2013-07-19 23:12:00,81.3,74.7,29.57,SSE,157,0.0,0.0,80,0.00,,,0.00,WUHU21623XXSP,2013-07-20 03:12:00,
2013-07-19 23:17:00,81.3,75.0,29.57,SE,135,0.0,0.0,81,0.00,,,0.00,WUHU21623XXSP,2013-07-20 03:17:00,
2013-07-19 23:22:00,81.3,75.0,29.57,SE,135,0.0,0.0,81,0.00,,,0.00,WUHU21623XXSP,2013-07-20 03:22:00,
2013-07-19 23:27:00,81.1,74.8,29.57,SE,135,0.0,0.0,81,0.00,,,0.00,WUHU21623XXSP,2013-07-20 03:27:00,
2013-07-19 23:32:00,81.1,74.8,29.57,SE,135,0.0,0.0,81,0.00,,,0.00,WUHU21623XXSP,2013-07-20 03:32:00,
2013-07-19 23:37:00,81.1,74.8,29.57,SE,135,0.0,0.0,81,0.00,,,0.00,WUHU21623XXSP,2013-07-20 03:37:00,
2013-07-19 23:42:00,81.1,74.8,29.57,ESE,112,0.0,0.0,81,0.00,,,0.00,WUHU21623XXSP,2013-07-20 03:42:00,
2013-07-19 23:47:00,81.1,74.8,29.56,SE,135,0.0,0.0,81,0.00,,,0.00,WUHU21623XXSP,2013-07-20 03:47:00,
2013-07-19 23:52:00,81.1,74.8,29.56,SE,135,0.0,0.0,81,0.00,,,0.00,WUHU21623XXSP,2013-07-20 03:52:00,
2013-07-19 23:57:00,81.1,74.8,29.56,SSE,157,0.0,0.0,81,0.00,,,0.00,WUHU21623XXSP,2013-07-20 03:57:00,